This is the latest recevied weather packets stored in our database for station/object KE0TNI-13. If no packets are shown the sender has not sent any weather packets the latest 10 day(s).
| Time | Temp. | Humidity | Pressure | Rain* | Wind** | Luminosity | Snow |
|---|---|---|---|---|---|---|---|
| 1777303078 | 2.22° C | 78% | 1013.9 hPa | 0 mm | - | 234 W/m² | - |
| 1777302474 | 2.22° C | 79% | 1013.7 hPa | 0 mm | - | 160 W/m² | - |
| 1777301869 | 2.22° C | 78% | 1013.6 hPa | 0 mm | - | 157 W/m² | - |
| 1777301263 | 2.22° C | 70% | 1013.6 hPa | 0 mm | - | 207 W/m² | - |
| 1777300657 | 2.22° C | 66% | 1013.4 hPa | 0 mm | - | 144 W/m² | - |
| 1777300355 | 2.22° C | 64% | 1013.5 hPa | 0 mm | - | 97 W/m² | - |
| 1777300052 | 2.22° C | 64% | 1013.2 hPa | 0 mm | - | 83 W/m² | - |
| 1777299748 | 2.22° C | 63% | 1013.1 hPa | 0 mm | - | 109 W/m² | - |
| 1777299446 | 2.78° C | 63% | 1013 hPa | 0 mm | - | 142 W/m² | - |
| 1777299143 | 2.78° C | 62% | 1013.4 hPa | 0 mm | - | 108 W/m² | - |
| 1777298840 | 2.78° C | 61% | 1013.1 hPa | 0 mm | - | 104 W/m² | - |
| 1777298537 | 2.22° C | 62% | 1012.8 hPa | 0 mm | - | 138 W/m² | - |
| 1777298234 | 2.22° C | 60% | 1012.6 hPa | 0 mm | - | 93 W/m² | - |
| 1777297020 | 1.11° C | 64% | 1012.3 hPa | 0 mm | - | 62 W/m² | - |
| 1777296716 | 0.56° C | 62% | 1012.1 hPa | 0 mm | - | 57 W/m² | - |
| 1777296407 | 0° C | 67% | 1012.1 hPa | 0 mm | - | 58 W/m² | - |
| 1777295800 | -1.11° C | 71% | 1012.2 hPa | 0 mm | - | 49 W/m² | - |
| 1777295498 | -1.11° C | 78% | 1012.1 hPa | 0 mm | - | 48 W/m² | - |
| 1777295195 | -1.67° C | 77% | 1012.1 hPa | 0 mm | - | 51 W/m² | - |
| 1777294893 | -2.22° C | 77% | 1011.7 hPa | 0 mm | - | 40 W/m² | - |
| 1777293986 | -3.33° C | 81% | 1011 hPa | 0 mm | - | 17 W/m² | - |
| 1777293382 | -3.33° C | 79% | 1011 hPa | 0 mm | - | 9 W/m² | - |
| 1777293079 | -2.78° C | 79% | 1010.8 hPa | 0 mm | - | 7 W/m² | - |
| 1777292778 | -3.33° C | 78% | 1010.9 hPa | 0 mm | - | 6 W/m² | - |
| 1777292474 | -2.78° C | 78% | 1010.6 hPa | 0 mm | - | 5 W/m² | - |
* Rain latest hour (hover to see other rain measurements)
** Current wind speed in m/s (hover to see current wind gust speed)